Starlink 31468

operational
NORAD ID: 58998 Int'l Des: 2024-036 Owner: SPXS Country: US Constellation: starlink
LEOCIRCULAR

关于 Starlink 31468

正在加载描述...

实时位置

正在加载3D地球...

即将过境

高度历史

Altitude vs Time

uPlot chart will show altitude changes over time

两行轨道根数

1 58998U 24036A 25349.60585717 .00001259 00000-0 54621-4 0 9995
2 58998 53.1609 108.4167 0001273 77.5974 282.5169 15.30197841102469
Epoch: Dec 15, 2025 • Age: 32 hours

当前状态

高度 476.4 km
速度 7.63 km/s
星下点 30.70°N, 71.82°E
发射日期 Feb 23, 2024
运行时间 1.8 years
类型 internet

技术详情

分类 Payload
质量 730.00 kg
干质量 700.00 kg
总质量 730.00 kg
长度 0.30 m
直径 4.10 m
跨度 29.00 m
形状 Box + pan
制造商 SPXS
平台类型 Starlink V2M
阶段状态 In Orbit
所有者/国家 SPXS/US

大型星座

Loading constellations...